Regional Weather Roundup
Issued by NWS Cleveland, OH

Home | Current Version | Previous Version | Graphics & Text | Print | Product List | Glossary On
Versions: 1 2 3 4 5 6 7 8 9 10 11 12 13 14 15 16 17 18 19 20 21 22 23 24 25 26 27 28 29 30 31 32 33 34 35 36 37 38 39 40 41 42 43 44 45 46 47 48 49 50
000
ASUS41 KCLE 310200
RWRCLE
OHIO REGIONAL WEATHER ROUNDUP
NATIONAL WEATHER SERVICE WILMINGTON, OH
1000 PM EDT WED JUL 30 2014

NOTE: "FAIR" INDICATES FEW OR NO CLOUDS BELOW 12,000 FEET WITH NO
SIGNIFICANT WEATHER AND/OR OBSTRUCTIONS TO VISIBILITY.

OHZ001>008-015>018-024>027-034-035-043-044-310300-
   NORTHWEST OHIO

CITY           SKY/WX    TMP DP  RH WIND       PRES   REMARKS
DEFIANCE       CLEAR     67  55  65 CALM      30.02R
FINDLAY        CLEAR     66  57  72 SW3       30.01R
TOLEDO EXPRESS PTCLDY    60  55  83 E5        30.01R
TOLEDO METCALF MOCLDY    64  59  83 CALM      30.02R
LIMA           CLEAR     66  59  78 W3        30.03R
$$

OHZ009>014-019>023-028>033-038-089-310300-
   NORTHEAST OHIO

CITY           SKY/WX    TMP DP  RH WIND       PRES   REMARKS
CLE-HOPKINS    CLOUDY    65  56  72 S6        30.02S THUNDER
CLE-LAKEFRONT  CLOUDY    67  58  72 S6        30.00R
CUY CO. ARPT   MOCLDY    66  61  82 S9        30.02R
LORAIN-ELYRIA  RAIN      67  59  75 NW14      30.04R
ASHTABULA      PTCLDY    60  57  89 CALM      30.03R
AKRON-CANTON   MOCLDY    62  58  86 S7        30.04R
WOOSTER        NOT AVBL
MANSFIELD      PTCLDY    64  58  80 CALM      30.04R
YOUNGSTOWN     CLOUDY    63  57  81 S5        30.04R
$$

OHZ042-051>053-060>062-070>072-077>081-310300-
  SOUTHWEST OHIO

CITY           SKY/WX    TMP DP  RH WIND       PRES   REMARKS
CINC-COVINGTON CLOUDY    70  59  68 CALM      30.07R
CINC-LUNKEN    PTCLDY    70  62  76 CALM      30.06R
HAMILTON       CLOUDY    67  65  93 CALM      30.06R
DAYTON         NOT AVBL
WRIGHT-PAT AFB NOT AVBL
DAYTON GENERAL CLOUDY    69  58  67 SW5       30.05R
WILMINGTON     CLOUDY    63  60  90 S3        30.06S
$$

OHZ036-037-039>041-045>050-054>059-063>069-073>076-082>088-310300-
  CENTRAL AND SOUTHEAST OHIO

CITY           SKY/WX    TMP DP  RH WIND       PRES   REMARKS
COLUMBUS       PTCLDY    68  59  73 S6        30.04R
OSU AIRPORT    CLOUDY    67  60  78 S7        30.04R
BOLTON FIELD   NOT AVBL
RICKENBACK AFB NOT AVBL
NEWARK         CLEAR     65  59  81 S6        30.05R
MARION         MOCLDY    66  57  72 SW5       30.03R
LANCASTER      PTCLDY    63  59  87 S5        30.06R
ZANESVILLE     CLEAR     63  58  83 S6        30.06R
NEW PHILLY     FOG       61  61 100 CALM      30.05R VSB 1/2
$$



USA.gov is the U.S. government's official web portal to all federal, state and local government web resources and services.